GEFSNGP_500_meanwind_228.txt.gz
Wind_Speed
32 31 31 31 32 33 33 33 34 33 33 31 30 29 28 27 27 27 27 27 27 28 28 28 29 28 26 26 26 25 25 25 25 26 26 26 27 28 27 27 28 29 28 27
33 33 33 34 33 34 34 34 34 35 34 32 31 30 30 29 28 28 27 28 28 28 29 29 29 28 28 28 28 27 27 27 28 29 29 28 29 30 29 29 30 29 29 29
35 35 35 35 34 35 35 35 36 35 34 34 33 31 30 30 29 29 29 29 29 30 30 30 29 29 30 30 29 29 29 29 30 30 30 30 31 31 32 31 31 30 30 30
38 37 37 35 34 36 37 36 37 37 36 36 35 33 33 33 32 30 30 30 30 30 30 30 30 31 32 32 31 32 32 32 32 32 32 32 33 33 32 31 31 31 31 32
39 39 38 36 36 36 37 37 37 37 37 37 36 34 33 33 33 32 32 32 32 32 32 32 31 32 32 32 34 34 34 33 32 33 33 33 34 33 33 33 33 33 33 33
40 41 40 37 37 37 37 38 36 37 37 37 37 35 34 33 34 34 35 35 34 34 35 35 35 35 35 34 35 36 35 34 33 34 35 34 34 34 34 34 34 34 34 34
40 41 41 40 39 38 38 37 36 37 37 37 37 36 35 35 35 35 36 36 36 36 36 36 36 35 36 36 35 36 36 35 35 35 35 34 34 35 35 35 35 34 35 35
39 40 40 39 39 40 39 38 37 36 37 38 38 38 37 37 36 36 36 36 37 38 38 38 36 35 36 36 36 36 36 36 36 35 35 36 36 36 36 36 36 36 35 35
40 40 40 39 39 39 39 38 38 37 37 38 38 38 38 37 37 37 37 38 38 39 39 37 36 36 36 36 36 36 37 37 36 35 36 37 37 36 36 36 37 36 35 35
38 38 39 39 39 38 38 38 38 38 38 38 38 39 39 38 38 38 38 38 38 38 38 37 37 36 35 35 35 35 36 37 37 37 36 36 36 36 36 36 36 36 36 35
37 37 37 37 37 38 38 38 38 37 37 38 39 39 39 39 38 38 38 37 37 36 36 35 36 36 36 36 36 37 37 38 38 37 37 36 36 36 36 36 36 36 35 34
37 36 37 36 37 37 38 38 38 38 38 38 39 39 38 38 38 37 37 37 36 36 35 35 35 35 35 35 36 36 36 36 37 37 37 37 37 36 36 36 36 36 35 35
37 36 36 35 35 36 36 37 38 38 38 38 38 38 37 37 37 37 37 36 36 36 36 35 34 35 35 35 35 35 35 36 37 37 36 36 36 36 36 36 35 35 35 35
35 35 34 34 34 35 36 37 37 37 37 37 37 37 37 36 36 36 36 36 36 36 35 35 35 35 35 35 34 34 34 35 35 36 37 37 36 36 36 36 35 35 35 35
33 33 32 32 33 34 35 35 36 36 36 36 36 37 36 36 35 35 35 35 35 35 34 34 35 35 34 34 34 34 33 33 34 35 35 36 35 35 36 36 35 35 35 34
31 31 31 31 31 32 33 33 33 33 34 34 35 35 35 35 34 33 33 33 33 33 33 33 32 32 34 33 33 32 32 32 33 34 34 34 34 35 35 34 34 34 34 34
28 29 30 30 29 29 29 30 30 31 32 32 32 32 32 33 32 31 30 31 32 31 31 31 31 31 31 30 30 30 30 31 32 32 31 30 30 31 33 33 33 33 32 32
22 23 25 26 25 25 25 26 27 27 27 27 28 28 29 29 29 29 29 29 29 29 29 29 29 29 29 29 28 27 27 28 28 29 27 28 28 29 29 30 30 30 31 31
20 20 21 22 22 22 23 23 24 24 24 24 25 25 25 26 27 27 27 27 27 27 28 28 28 28 27 27 26 26 27 27 28 28 27 27 27 28 28 28 28 29 29 29
18 18 18 19 19 20 21 21 21 21 21 22 23 23 24 25 25 26 25 25 25 26 26 26 26 26 26 26 25 25 25 25 26 26 26 26 26 26 25 26 26 26 27 27
14 15 15 17 18 18 18 19 19 19 19 20 21 22 22 23 23 24 24 24 24 25 25 25 25 25 24 24 24 23 24 24 24 24 25 25 24 24 25 25 25 25 26 26
11 12 13 15 15 16 16 17 18 18 18 19 19 20 21 22 22 23 23 23 24 24 24 24 24 23 23 23 23 24 24 24 24 24 24 25 25 25 25 25 25 25 25 25
10 11 11 11 12 13 13 14 15 16 16 16 17 18 19 19 20 21 21 22 22 21 21 21 21 22 22 23 23 23 23 23 24 24 25 25 24 24 25 25 25 24 25 25
9 9 9 10 10 10 11 11 12 13 14 15 16 16 17 17 17 18 18 18 19 19 19 20 20 21 22 22 23 23 23 23 23 24 24 24 24 25 26 26 25 25 24 25
9 9 9 9 9 9 10 11 11 12 13 14 14 15 15 15 14 15 15 16 17 18 18 19 19 20 21 22 22 23 23 23 23 23 23 24 25 25 25 25 25 25 25 25
9 8 9 9 9 9 10 11 12 12 13 13 13 13 14 14 14 15 15 16 16 17 18 18 19 20 20 21 21 21 22 23 23 23 24 24 24 24 24 25 25 25 26 26
8 8 8 8 8 8 9 10 10 11 12 12 12 13 13 14 14 14 15 15 16 16 17 17 18 18 19 20 21 21 22 22 23 23 24 24 24 24 24 24 25 26 26 26

GEFSNGP_500_meanwind_234.txt.gz
Wind_Speed
28 28 29 29 28 29 29 29 29 28 28 28 28 27 25 25 25 25 25 26 26 26 27 28 29 30 30 30 31 31 31 31 31 31 30 29 29 29 29 28 27 27 26 26
29 30 31 31 31 31 31 30 30 30 29 28 29 29 27 27 26 26 27 27 27 28 28 29 30 30 31 31 31 31 32 32 32 32 31 31 31 31 30 29 28 27 27 28
30 30 31 32 31 32 33 32 32 32 32 31 31 31 30 29 29 28 29 30 29 29 30 30 31 32 32 32 33 33 34 33 33 33 34 33 32 31 30 30 30 30 30 30
32 33 33 32 32 32 33 33 33 33 33 34 33 32 32 32 31 31 31 31 31 30 30 31 32 32 33 33 34 35 36 35 34 34 34 34 33 33 32 32 32 31 31 31
34 35 35 34 34 33 34 35 35 35 34 34 34 33 34 33 33 32 33 32 32 32 32 32 32 33 33 33 34 36 36 35 34 34 35 35 35 34 34 34 34 33 32 32
37 36 36 35 36 35 35 37 36 35 35 35 35 35 36 34 33 33 34 34 33 33 33 33 33 34 34 33 34 34 35 35 35 35 35 36 35 35 36 35 34 33 33 34
37 37 37 37 36 36 37 38 36 36 36 36 36 37 36 34 33 34 34 33 33 33 33 33 34 34 34 34 34 33 33 35 36 37 37 36 36 37 36 35 35 35 35 36
36 37 38 38 38 38 39 39 37 37 37 37 37 37 36 35 35 34 34 34 33 34 34 34 35 35 35 35 35 34 35 35 36 38 39 38 37 37 37 37 37 37 37 36
37 38 39 38 38 38 38 39 38 38 37 37 37 37 36 35 35 35 34 35 35 35 36 36 36 36 36 36 36 36 37 37 37 38 39 38 38 38 39 39 39 38 38 37
36 36 37 38 38 37 37 38 38 38 37 37 37 36 36 35 35 35 36 35 35 35 35 36 36 37 37 37 37 37 37 37 37 38 38 38 38 39 39 39 40 40 39 40
36 37 37 37 37 37 37 37 37 37 37 36 36 36 36 36 36 37 37 37 36 36 36 37 37 37 36 37 36 37 37 37 37 37 37 38 38 39 40 40 40 39 39 39
36 37 37 36 36 37 36 36 36 36 36 36 36 36 36 36 37 38 38 38 38 38 38 37 36 37 37 36 36 37 37 38 38 38 38 39 39 39 40 40 40 39 38 38
36 36 36 35 35 35 35 35 34 34 35 35 36 36 36 36 37 38 38 38 38 38 39 38 38 37 37 37 37 38 38 37 37 37 38 39 39 39 39 39 39 38 37 37
33 33 33 32 32 33 33 33 32 32 33 33 33 33 33 34 35 35 36 36 37 37 37 37 37 37 37 37 36 35 35 35 36 37 37 37 37 37 37 37 37 36 36 36
30 30 30 30 30 31 32 32 32 32 32 33 32 32 31 31 31 31 31 31 32 32 33 34 35 36 36 35 35 34 34 34 35 35 36 36 36 36 35 35 35 35 35 36
28 28 28 28 28 29 30 31 31 31 32 32 31 31 30 30 30 29 29 29 29 30 30 31 33 33 33 33 33 33 32 32 33 34 34 34 35 35 35 34 34 34 34 35
26 26 26 26 26 27 27 28 29 29 29 29 29 28 28 28 28 27 27 28 28 29 29 29 29 30 30 30 31 31 31 31 31 31 32 33 33 33 33 33 33 33 34 34
23 23 24 24 24 25 25 26 27 27 26 26 26 26 26 27 27 27 27 27 28 28 27 27 27 27 27 26 27 28 29 30 30 31 31 31 30 29 30 30 30 31 32 32
19 20 20 21 22 23 23 24 25 25 25 26 26 25 26 26 26 26 26 27 27 27 26 27 27 26 25 25 26 26 27 28 29 29 29 28 28 28 28 28 29 29 30 30
16 17 18 18 19 20 20 22 23 23 24 24 25 25 25 25 25 25 26 26 27 26 26 26 26 26 25 25 25 26 27 27 28 27 27 27 27 27 27 27 27 27 27 28
14 15 16 16 16 17 19 20 21 21 22 23 23 23 24 24 25 25 25 25 25 24 24 24 24 25 25 25 25 25 26 26 26 26 27 27 27 27 27 26 26 26 26 26
11 12 13 14 16 17 17 17 18 19 20 21 21 21 21 21 22 22 22 23 22 22 22 23 23 24 24 24 24 24 25 25 25 25 26 26 26 26 26 26 26 26 26 26
10 11 12 13 13 14 15 16 17 17 18 18 18 19 19 20 20 21 21 21 21 21 21 21 22 22 23 24 24 24 24 24 24 25 25 25 25 25 25 25 25 25 26 26
10 10 11 12 13 13 14 14 15 15 16 16 16 17 18 18 19 19 20 20 21 21 20 21 21 22 23 24 24 24 24 24 24 25 25 25 26 26 25 25 25 26 26 25
9 10 11 11 11 11 11 12 12 13 13 14 15 15 16 16 17 18 19 20 20 21 21 21 21 22 22 23 23 23 23 23 24 24 24 25 25 25 25 25 26 25 25 25
9 9 8 9 9 10 10 10 11 11 12 12 13 14 15 16 16 17 18 19 19 20 20 20 21 21 21 21 22 22 22 23 24 24 23 23 23 23 24 24 25 25 25 26
9 9 9 9 9 9 10 10 10 11 12 12 13 13 14 15 16 16 17 18 19 20 21 21 22 22 21 22 22 22 22 22 23 23 23 22 23 23 24 24 25 24 25 25

GEFSNGP_500_meanwind_240.txt.gz
Wind_Speed
26 23 22 22 22 22 23 24 24 25 26 26 27 28 28 28 27 28 28 27 27 27 27 27 27 27 28 28 27 28 28 27 28 28 28 29 30 30 30 29 28 27 27 26
28 27 27 27 26 25 26 25 25 26 28 28 32 32 31 31 31 32 31 30 30 30 29 29 29 29 29 31 30 30 30 30 30 30 30 31 31 31 31 31 29 28 28 28
30 29 29 29 26 25 27 28 28 29 30 30 32 33 33 33 34 34 34 33 33 33 32 32 32 32 31 31 31 31 31 32 32 32 33 32 33 33 32 31 30 28 28 29
31 30 32 29 26 26 28 29 28 29 31 32 33 34 36 36 36 36 35 35 35 35 35 34 33 33 33 32 32 32 32 33 34 34 35 34 34 33 33 33 32 31 30 30
31 31 31 29 27 27 27 30 30 32 33 33 34 36 38 39 38 38 37 36 36 36 36 35 35 35 35 34 33 33 34 34 35 36 36 36 35 35 35 34 34 33 32 32
32 32 32 29 28 30 31 31 33 35 36 35 34 35 38 39 39 39 37 37 36 36 36 36 36 36 36 35 35 36 36 36 36 37 37 37 37 37 37 37 36 34 33 33
33 33 33 32 32 32 33 35 36 36 37 36 36 37 39 40 39 39 38 38 38 37 36 36 36 36 36 36 37 37 37 37 36 36 37 37 37 38 38 37 36 35 35 35
32 33 33 35 35 35 36 37 37 38 39 39 39 39 40 41 42 41 40 38 37 37 37 37 37 36 36 37 37 37 37 36 36 37 36 36 37 37 37 37 36 36 36 36
33 34 36 37 38 38 38 38 38 39 40 40 40 40 42 42 42 42 41 37 36 37 37 37 38 38 37 37 37 38 37 38 38 38 37 37 38 37 37 37 37 37 36 36
36 37 37 38 39 40 40 40 40 40 41 41 42 42 42 42 42 41 41 39 38 38 38 38 38 38 38 38 38 38 38 38 38 38 38 38 39 39 38 38 38 37 37 38
37 37 38 39 41 41 41 41 41 42 43 43 43 43 42 42 42 42 42 41 39 38 38 37 37 38 39 39 38 38 38 38 38 38 38 38 37 37 38 38 38 38 38 38
39 38 39 39 39 40 41 41 41 42 43 42 42 42 42 41 42 42 42 42 41 40 39 38 38 39 39 38 37 37 37 37 37 37 37 38 37 37 37 37 37 37 37 37
39 38 39 40 39 39 40 42 41 41 41 41 40 40 40 39 39 40 41 41 39 38 39 38 38 38 38 37 37 37 37 37 37 37 36 36 37 37 37 36 36 36 36 37
37 38 39 38 38 38 39 40 39 39 39 39 39 38 38 39 39 39 40 39 38 38 38 38 38 38 37 37 37 37 36 36 35 35 35 36 36 36 36 37 37 36 36 37
35 36 37 38 38 38 37 37 37 36 36 35 35 36 36 36 37 38 38 38 37 37 38 37 37 37 36 36 36 36 36 35 35 35 34 34 34 35 36 36 37 37 36 36
34 35 35 35 35 35 35 35 34 33 33 33 33 34 35 35 35 36 36 36 36 35 35 35 35 35 35 35 35 35 35 35 35 35 35 34 33 34 34 35 35 36 36 36
32 32 31 31 31 31 31 31 31 31 32 32 32 32 33 33 33 33 33 34 35 34 34 34 34 34 34 34 34 33 33 33 34 33 33 34 33 34 34 35 36 36 36 36
27 28 28 28 28 28 28 28 29 29 30 30 30 30 30 31 32 32 32 32 33 33 33 32 33 33 32 32 33 32 31 31 31 31 32 32 31 31 32 32 32 32 32 32
22 24 25 25 25 26 26 26 27 27 27 28 28 29 30 30 30 31 32 32 32 32 32 32 31 31 31 32 32 31 31 30 30 30 30 29 30 30 31 31 31 30 31 31
20 21 22 22 23 23 23 23 24 25 25 26 27 27 28 29 28 28 29 30 29 30 30 31 31 31 31 31 31 31 30 30 30 30 30 30 30 30 30 30 30 30 30 30
17 18 18 19 20 20 21 21 21 22 23 23 24 25 26 27 27 27 28 28 28 28 29 29 29 29 29 29 29 30 30 30 30 30 30 30 30 30 30 29 29 29 29 29
14 15 15 16 17 18 18 18 19 20 21 22 22 23 23 24 25 25 25 26 26 26 27 27 28 28 28 28 29 29 29 29 28 28 29 29 29 29 29 29 29 29 29 30
14 14 14 15 15 15 16 16 17 18 19 19 20 20 21 22 23 23 24 24 24 25 26 27 27 28 28 28 28 28 28 28 28 28 28 28 29 29 29 28 29 29 29 29
12 13 13 14 14 14 15 16 16 17 18 19 19 20 20 20 21 21 22 23 24 25 25 26 25 25 25 26 26 26 27 27 27 27 27 28 28 28 28 28 28 28 28 28
13 13 13 13 13 13 13 14 15 16 17 18 18 18 18 19 19 20 20 21 21 21 22 23 23 24 25 25 25 25 25 26 26 27 28 28 28 28 28 28 28 28 28 28
12 12 12 12 12 12 12 13 13 13 14 14 15 15 16 17 18 19 19 20 19 19 20 21 22 22 23 24 24 25 25 26 26 27 27 27 27 27 27 27 27 27 27 27
11 11 12 12 12 12 12 12 12 12 12 13 13 14 15 16 17 17 18 18 19 19 20 21 21 21 22 23 24 25 26 26 27 27 27 27 27 27 27 27 27 28 28 26

GEFSNGP_500_meanwind_246.txt.gz
Wind_Speed
27 26 26 27 26 26 27 27 28 28 27 26 25 26 27 26 26 27 26 25 24 24 24 25 26 25 25 25 26 26 25 26 26 26 27 26 26 26 26 26 26 26 26 25
30 29 29 28 27 28 29 29 30 30 30 28 27 28 29 30 30 29 28 27 26 26 28 28 28 28 28 28 28 28 28 28 27 27 28 27 27 27 27 27 28 28 27 26
31 30 31 31 29 30 31 32 33 33 31 31 31 30 31 31 31 31 32 31 29 29 30 30 30 30 30 31 31 31 30 30 30 29 30 29 29 29 28 28 28 28 28 27
32 32 33 31 30 31 32 33 34 34 34 32 32 32 32 33 32 32 33 32 32 31 30 31 32 33 34 34 34 34 33 33 32 31 31 30 30 30 30 30 30 29 29 29
34 33 33 31 31 32 33 34 33 34 34 34 34 35 35 35 35 34 33 35 35 34 34 34 35 35 35 36 37 37 35 34 33 32 32 32 32 32 32 33 32 32 32 31
35 35 34 32 32 33 33 35 35 35 35 35 35 36 36 36 37 37 37 37 38 38 37 37 37 36 36 37 38 36 34 35 36 35 34 33 34 34 34 34 34 33 33 33
36 36 36 34 33 33 35 35 35 36 37 36 36 37 37 39 40 40 39 39 39 40 40 39 38 38 38 38 38 37 36 36 35 35 33 33 34 34 33 34 34 34 35 35
36 36 36 35 35 35 36 36 37 37 37 38 38 39 39 40 40 41 41 41 40 41 40 39 38 38 38 39 38 37 37 36 36 36 34 34 34 35 35 35 35 36 36 37
37 36 36 37 36 36 37 38 37 38 38 39 39 40 39 40 41 40 40 40 40 41 39 38 39 38 38 38 39 38 37 37 37 37 36 36 36 37 36 36 36 37 37 36
36 36 37 38 38 38 38 38 38 38 38 39 40 41 41 41 41 40 40 40 41 41 39 38 38 38 38 38 38 37 37 37 36 36 36 36 37 37 38 37 36 36 35 35
36 37 39 38 39 40 40 40 40 40 40 40 41 41 42 42 41 39 39 40 40 40 39 38 37 37 38 38 37 37 37 38 37 36 35 35 36 36 36 36 36 36 35 34
37 37 38 38 39 40 41 41 41 41 41 42 42 42 42 40 38 38 38 38 38 38 38 38 37 37 37 37 38 37 37 37 37 36 35 35 35 35 35 35 35 35 34 33
37 37 38 38 38 39 40 41 41 41 41 41 40 40 40 39 39 39 38 38 38 38 38 38 37 37 37 37 37 37 37 37 36 35 35 35 34 34 34 34 34 33 33 33
36 37 37 38 38 40 40 40 40 40 40 40 40 39 38 38 39 40 40 39 38 38 38 37 37 36 35 35 35 35 35 35 34 33 34 34 34 34 34 33 33 33 33 33
34 36 36 37 38 39 40 40 40 40 39 39 40 39 38 37 37 37 38 38 37 37 36 36 35 34 34 34 34 34 33 33 33 32 33 33 33 34 33 33 33 33 33 32
32 34 34 34 35 36 37 38 38 38 39 37 36 37 37 36 36 35 35 35 36 35 35 34 33 33 33 33 33 33 33 33 32 32 32 32 33 33 33 33 33 33 33 33
30 31 32 33 33 34 34 35 35 36 36 36 36 36 35 35 34 34 34 34 34 34 34 33 32 32 32 32 32 32 33 33 33 32 32 32 31 32 32 31 32 32 32 31
28 29 30 30 30 30 30 30 32 32 33 34 34 33 32 33 32 32 32 32 32 32 32 32 31 31 30 31 31 31 32 33 33 32 32 32 31 31 31 31 30 30 30 31
25 26 27 27 26 26 27 28 29 29 29 29 30 30 30 30 30 30 30 29 29 29 28 29 29 30 30 31 31 31 31 30 32 32 32 31 31 31 31 31 31 30 31 31
21 20 21 22 23 23 24 25 26 26 26 27 27 28 27 28 27 27 27 27 27 26 27 28 28 29 29 30 30 30 30 30 31 31 30 29 30 30 30 31 31 31 30 31
18 18 17 18 19 20 21 21 21 22 23 24 25 25 25 26 26 25 25 26 26 26 27 27 28 28 28 29 29 29 29 28 28 28 28 28 29 30 31 30 30 30 30 31
16 15 14 14 16 17 18 19 20 20 21 22 22 22 23 23 24 24 24 25 25 26 27 27 27 27 27 28 28 27 27 27 28 28 28 28 28 29 30 30 30 30 30 30
13 13 12 14 15 15 16 18 18 18 19 19 20 20 20 20 21 22 23 24 24 24 25 25 25 26 26 26 25 24 24 25 26 27 27 28 29 29 29 29 30 30 30 30
13 12 13 13 14 14 15 16 17 17 18 18 18 18 18 18 19 20 21 22 22 22 23 23 23 24 24 24 24 24 24 25 26 26 27 27 28 28 28 29 29 30 30 30
12 13 13 13 13 13 14 14 15 16 16 17 17 17 17 17 17 17 18 19 20 19 20 20 21 22 22 23 24 24 25 25 26 26 26 26 27 27 27 27 28 28 28 29
12 12 12 12 12 12 13 13 14 14 14 15 15 15 15 15 16 16 17 17 17 18 19 20 21 21 22 22 22 22 23 24 24 25 26 25 25 26 26 26 26 27 28 28
11 11 11 11 12 12 13 13 13 12 13 13 13 13 14 14 14 15 16 16 17 18 19 19 19 20 20 21 21 21 22 23 24 24 25 26 25 25 25 26 27 27 28 28

GEFSNGP_500_meanwind_252.txt.gz
Wind_Speed
27 26 26 27 28 29 29 29 30 29 29 27 25 25 25 24 24 24 24 24 25 26 25 24 24 25 25 26 26 26 26 26 26 26 26 27 27 27 28 27 27 26 26 26
29 29 30 31 31 31 31 32 32 31 31 29 28 26 26 26 26 26 25 25 25 25 26 27 27 27 27 27 28 28 29 29 29 29 29 29 29 30 30 29 29 29 28 28
31 32 32 33 31 31 32 33 33 33 32 32 31 29 28 28 28 27 26 27 27 27 27 28 28 29 30 30 30 30 31 31 32 32 31 31 32 32 32 32 32 31 31 31
34 34 35 33 33 33 33 33 33 33 33 33 33 32 31 31 31 30 30 30 31 31 30 30 30 31 32 33 32 32 33 33 34 33 33 34 34 33 34 34 34 33 32 32
37 36 36 34 34 34 34 34 33 34 34 34 33 32 32 33 34 34 33 33 33 33 33 33 33 33 33 34 34 34 34 34 35 35 36 36 35 35 35 35 34 34 33 32
38 38 37 36 35 36 36 36 35 35 35 35 34 34 33 33 34 34 35 34 35 35 36 35 36 36 36 36 36 35 35 35 36 37 37 37 37 37 36 35 34 34 33 32
38 38 38 37 36 36 37 37 37 37 36 36 36 35 34 34 35 36 36 37 37 37 39 38 38 38 38 38 38 37 36 37 37 37 38 38 37 38 37 36 35 34 33 32
38 39 39 38 37 37 37 37 37 37 37 37 38 37 36 36 37 37 38 38 39 40 40 40 40 40 39 39 40 39 39 38 38 38 39 38 38 37 37 36 35 36 34 33
38 38 39 38 38 38 38 38 38 38 38 38 38 38 38 39 39 39 40 40 40 41 41 42 41 41 41 41 40 41 41 40 40 39 38 37 37 37 36 35 35 34 34 34
38 38 38 38 38 39 39 39 38 38 38 38 39 39 40 40 40 40 40 40 40 41 41 41 41 41 41 41 41 41 40 39 38 37 37 37 37 37 37 37 35 35 35 34
38 38 39 39 39 39 39 40 39 39 39 39 39 40 40 40 39 39 39 39 39 40 40 40 40 41 41 40 40 39 39 37 37 37 36 37 37 37 38 37 36 35 34 34
36 37 38 38 38 40 40 40 40 40 40 40 40 40 40 40 40 40 39 39 40 40 40 40 40 39 40 40 39 40 39 38 38 37 37 37 37 37 38 37 35 35 35 35
36 36 37 37 38 38 39 39 40 40 41 42 41 41 41 41 41 41 40 41 42 40 39 39 39 39 39 40 39 38 38 38 38 38 38 38 38 38 36 36 36 36 35 35
34 35 36 36 37 37 37 38 39 40 40 41 42 42 42 41 41 41 41 41 41 41 41 40 39 37 37 37 37 37 37 36 37 37 37 35 35 35 35 35 34 35 34 34
32 33 33 34 35 36 37 38 38 39 39 39 40 41 41 41 40 40 40 40 40 41 41 40 38 36 36 37 37 36 36 36 35 35 35 33 34 33 33 33 33 34 35 35
30 31 32 33 34 35 36 36 37 37 37 37 38 39 39 40 40 40 40 39 39 39 38 37 36 35 35 35 35 36 35 35 34 33 33 33 33 32 32 32 32 32 32 32
28 29 30 32 33 34 34 34 35 35 35 35 35 37 37 37 38 38 37 37 37 37 36 35 34 34 34 35 35 35 34 33 33 32 32 33 33 32 31 31 31 31 31 31
27 28 29 30 31 31 32 32 32 32 32 33 34 34 34 35 35 36 35 35 35 35 35 35 34 34 33 34 35 34 33 32 31 31 32 33 32 31 30 30 30 30 30 32
26 27 28 28 28 29 29 28 29 29 30 31 31 31 32 33 33 33 33 33 33 33 33 33 33 32 32 31 31 31 31 31 30 30 30 30 30 29 29 29 30 30 30 31
25 25 25 25 26 26 25 25 25 26 26 27 28 28 29 29 29 30 30 30 30 30 30 30 30 30 29 28 29 29 29 29 28 28 28 27 27 26 27 28 29 30 30 30
22 22 22 23 23 22 22 22 22 22 22 23 24 24 24 25 26 27 27 26 26 27 27 28 28 28 28 28 28 28 28 27 28 28 28 27 28 27 27 28 28 29 29 30
20 20 19 19 19 19 19 19 19 19 19 20 21 22 22 22 23 23 24 25 25 25 26 26 26 27 27 28 28 27 28 28 28 29 28 27 27 28 28 29 30 30 30 30
17 16 17 17 16 16 16 17 17 17 18 19 20 21 21 21 21 21 22 22 23 23 24 25 25 25 26 27 26 26 27 27 27 27 27 27 27 28 29 29 30 30 30 30
15 16 16 16 15 15 15 16 17 17 18 18 19 19 20 20 20 20 19 19 20 20 21 22 22 23 24 25 25 24 25 25 26 26 26 27 27 28 28 29 29 29 29 29
15 15 15 15 14 15 15 16 16 16 16 17 17 17 17 18 18 17 18 18 18 19 19 20 20 20 21 21 22 22 22 23 24 25 27 27 28 28 28 28 28 29 29 29
15 15 15 15 15 15 16 16 16 16 17 17 17 16 16 17 17 17 17 17 17 18 18 19 19 20 20 21 21 21 22 22 24 25 26 27 27 27 27 28 28 28 28 28
15 15 15 15 15 15 16 16 16 16 17 16 16 17 17 17 16 16 16 17 17 17 18 19 19 19 20 21 21 21 22 22 23 24 25 26 26 27 27 28 28 28 28 28

GEFSNGP_500_meanwind_258.txt.gz
Wind_Speed
25 24 24 25 24 24 24 23 23 23 24 24 24 24 23 23 23 23 23 23 24 25 25 25 26 26 26 27 28 28 27 27 27 27 26 26 27 27 27 27 27 28 28 29
28 27 27 27 26 26 27 27 27 26 27 27 27 27 26 26 26 26 26 26 27 27 28 28 28 28 29 29 29 30 30 30 30 29 29 28 28 29 29 29 30 30 30 30
29 29 29 30 28 29 29 29 28 28 29 29 30 29 29 28 28 28 28 28 29 29 30 30 30 30 31 31 32 32 33 33 33 32 32 32 31 31 31 32 32 32 32 32
31 31 32 31 31 31 31 31 31 31 31 31 31 31 30 30 31 31 30 31 31 31 31 31 32 32 32 33 33 33 34 35 34 34 35 35 34 33 33 34 34 34 34 34
32 33 34 34 34 33 33 34 34 34 33 33 32 33 33 32 32 32 31 31 32 33 33 33 33 34 34 34 35 34 34 36 36 36 37 37 37 36 36 36 36 36 35 35
33 33 33 34 34 33 34 36 35 35 35 34 33 34 35 34 33 33 33 33 33 34 34 34 34 35 35 36 36 36 36 37 37 37 38 39 39 38 39 38 37 37 37 37
34 34 34 35 35 34 35 36 35 35 35 35 34 35 35 35 35 35 35 35 35 36 36 36 36 36 37 36 36 36 38 38 38 38 39 39 39 39 39 39 39 38 38 38
34 34 35 35 36 36 36 36 36 36 36 36 36 36 36 36 36 36 36 37 37 38 38 38 38 39 39 38 38 38 38 39 39 39 39 39 39 38 38 39 40 39 39 39
34 35 35 36 37 37 37 37 37 37 36 36 37 37 36 36 37 37 37 38 39 39 39 40 40 41 40 40 40 39 39 39 39 39 40 40 40 40 40 40 40 41 41 41
35 35 36 36 36 37 37 37 37 37 37 37 37 37 37 37 38 38 38 38 39 39 39 39 40 41 41 41 40 40 39 39 39 40 40 40 40 40 40 40 40 40 40 40
33 33 33 33 34 35 36 36 37 37 37 37 37 37 38 38 38 39 39 38 39 39 39 39 40 40 41 41 41 41 40 40 40 40 41 40 40 40 39 39 39 39 39 39
32 32 33 33 34 34 35 35 36 36 36 37 37 38 38 38 39 39 39 39 39 39 40 40 40 40 40 40 40 41 40 40 39 39 39 39 40 39 39 38 37 38 38 39
32 32 33 33 33 34 34 35 35 36 37 37 38 38 38 39 39 39 39 39 39 40 40 40 41 41 41 41 41 40 40 40 39 39 38 38 38 39 39 39 38 39 39 39
31 31 32 32 33 34 34 34 35 36 36 36 37 38 38 38 39 39 39 40 40 41 41 42 42 41 41 41 41 41 40 40 40 39 39 38 38 38 39 39 39 39 39 38
28 29 30 30 31 32 33 33 34 34 35 36 36 37 37 38 39 40 41 41 41 41 41 41 42 42 42 42 42 41 40 40 40 39 38 38 38 38 38 38 38 37 37 36
27 28 29 29 29 31 31 32 33 33 34 35 36 37 37 38 38 39 39 39 39 39 39 39 40 40 40 41 41 40 40 39 40 39 38 37 37 37 37 36 35 35 36 35
25 26 26 27 28 29 30 31 32 33 34 35 35 36 36 36 36 37 37 37 38 38 38 38 38 38 38 38 38 38 38 38 38 37 36 36 36 36 35 35 35 35 34 34
23 24 25 26 27 28 29 30 31 31 32 32 33 33 34 34 34 35 35 35 35 36 36 36 35 35 35 35 34 34 34 35 35 35 35 35 34 34 34 34 33 32 32 31
22 23 24 25 25 26 26 27 28 29 29 30 31 31 31 32 32 32 32 32 32 33 33 33 33 32 32 32 32 32 32 32 33 34 33 33 32 32 31 31 31 31 31 32
20 21 22 23 23 24 24 25 26 26 27 27 28 28 28 28 28 28 28 29 28 28 28 29 29 29 30 30 30 30 30 30 31 32 32 31 31 31 30 30 29 29 30 31
19 19 20 20 21 22 22 23 24 23 24 24 24 24 24 25 25 26 26 26 26 25 25 25 25 25 26 26 27 27 28 28 29 29 29 29 29 30 29 29 29 30 30 30
17 18 18 19 19 20 20 20 21 21 21 21 21 22 22 23 23 23 23 23 23 22 22 22 23 24 24 24 25 26 27 28 28 28 29 29 29 29 29 29 29 29 29 30
16 17 17 18 18 18 18 18 19 20 20 20 20 20 21 21 20 20 20 20 21 21 21 21 22 23 23 24 25 26 26 27 27 27 27 27 28 29 29 29 30 30 30 30
15 15 16 17 17 17 18 18 18 18 19 19 19 19 20 20 20 20 20 20 19 20 20 21 21 21 21 22 23 24 24 24 25 24 24 25 27 28 28 29 29 29 29 29
14 15 16 16 17 17 17 17 17 17 18 18 18 19 19 19 19 18 18 18 18 18 19 20 20 20 21 22 22 22 23 22 22 23 23 24 25 26 27 27 27 28 29 29
15 15 16 16 16 17 17 17 17 17 16 17 17 18 18 18 18 18 17 17 17 18 18 18 19 19 19 20 20 20 20 20 21 21 23 23 24 25 26 27 27 27 28 28
15 16 16 16 17 17 18 17 17 17 17 17 17 18 18 18 17 17 17 17 18 18 18 19 19 19 18 18 19 19 20 21 21 21 22 22 22 23 23 24 25 26 27 27

GEFSNGP_500_meanwind_264.txt.gz
Wind_Speed
23 21 21 22 22 21 20 22 23 22 23 23 24 25 26 26 25 25 26 26 25 25 25 25 25 26 26 27 27 27 27 27 27 27 27 28 28 28 28 27 27 27 27 26
25 23 23 24 24 23 23 23 24 26 26 25 26 28 29 29 29 28 28 28 28 28 29 29 29 29 29 29 30 29 28 29 30 30 30 31 31 31 31 31 30 30 29 28
26 25 25 25 24 24 25 26 27 29 29 28 30 30 31 31 31 32 31 31 31 30 31 31 31 31 31 31 32 32 32 32 32 33 33 33 33 33 33 33 32 32 31 30
29 27 29 27 26 26 27 28 29 30 29 30 32 34 34 34 34 34 35 34 33 33 33 33 33 33 33 33 33 33 34 34 34 35 35 35 36 35 35 35 35 34 33 33
30 30 30 27 27 28 29 30 30 30 31 32 32 34 34 35 35 36 37 37 36 35 35 35 35 35 35 35 35 35 35 35 35 36 36 36 36 37 37 37 36 35 35 35
32 30 30 30 30 31 30 32 33 33 34 34 34 34 35 35 37 37 37 37 37 36 36 36 36 37 37 37 37 37 37 37 36 36 36 36 37 38 38 38 38 38 37 36
31 31 31 32 32 33 33 34 33 34 35 35 35 35 35 36 37 38 38 38 38 37 37 37 38 38 38 37 38 38 38 38 38 37 37 37 37 38 39 39 39 39 39 38
31 31 32 33 34 34 36 36 36 36 36 36 36 37 38 38 37 38 39 39 38 38 38 38 38 39 39 39 39 39 39 39 39 39 38 38 39 40 40 40 40 40 40 39
32 34 34 34 35 36 36 36 36 37 37 38 38 38 38 38 38 38 39 39 39 40 40 40 40 39 40 40 40 40 41 40 39 40 40 40 41 41 41 41 42 41 41 40
35 35 36 36 37 36 36 37 37 37 39 39 39 39 39 39 38 38 39 39 40 40 40 40 41 41 41 41 41 42 42 42 42 42 42 42 42 42 42 42 42 41 41 40
36 37 36 37 37 37 37 37 38 39 39 39 39 39 40 39 39 39 39 39 39 40 40 41 41 42 43 43 43 43 43 43 43 44 43 43 43 42 42 41 41 41 40 39
36 37 37 38 38 38 38 38 39 39 40 40 40 40 40 40 40 40 40 40 40 40 41 42 42 42 43 43 44 44 44 44 44 44 44 44 43 42 42 42 41 40 40 39
36 36 36 37 37 38 39 39 40 40 39 39 40 40 40 40 40 41 41 40 41 41 41 41 42 43 44 45 45 45 45 45 45 44 44 44 43 43 42 41 40 39 39 38
34 34 35 36 36 36 37 37 38 39 39 40 40 40 39 40 41 41 41 41 41 41 41 42 42 43 44 44 44 44 45 45 45 44 44 43 43 42 41 40 40 40 39 38
32 33 33 34 34 35 35 36 36 37 38 39 39 39 40 41 41 41 41 42 42 42 42 43 43 43 44 44 45 45 45 46 45 44 43 43 42 41 40 40 40 40 39 38
30 31 32 32 32 33 34 34 35 36 37 38 38 39 39 40 40 40 41 42 42 42 42 42 42 42 42 43 43 44 44 44 44 43 43 41 40 39 39 39 40 40 39 38
29 30 30 31 31 32 32 32 32 33 34 35 36 37 37 38 38 39 39 39 40 40 40 40 40 40 40 40 40 40 40 40 40 40 40 38 37 37 38 38 38 38 37 37
28 28 29 29 29 30 30 31 31 31 32 33 33 34 35 35 36 37 37 37 37 37 37 37 37 37 37 37 37 38 38 38 38 38 38 37 36 36 36 36 36 36 36 35
24 25 26 26 27 27 28 28 28 29 30 31 32 32 32 32 33 33 34 34 34 35 35 35 35 35 35 35 35 35 35 36 36 36 36 36 36 36 36 37 36 36 35 34
23 24 24 24 25 25 26 26 27 28 28 29 30 29 30 31 31 32 32 32 32 32 32 33 33 33 33 33 33 33 33 33 33 33 34 34 35 35 34 35 34 33 34 34
22 22 23 23 24 24 24 25 25 26 26 27 28 28 28 29 29 30 30 30 30 30 30 31 31 30 30 30 30 30 30 30 30 31 32 33 32 32 32 32 32 31 30 30
21 22 22 23 23 23 24 24 25 25 25 26 26 26 26 26 26 27 28 28 28 28 28 28 28 27 26 26 27 27 28 28 28 29 29 30 30 29 29 29 29 29 29 28
20 21 21 21 21 22 22 23 24 24 24 25 25 25 25 25 25 26 26 26 26 25 26 25 25 25 25 25 25 25 26 26 26 26 27 27 27 28 28 28 27 28 28 28
20 20 20 20 21 21 22 22 23 23 23 24 24 24 25 25 24 25 25 25 24 25 25 24 24 24 23 23 24 25 25 25 25 25 24 24 25 25 26 26 27 27 28 28
19 19 19 19 20 20 21 21 22 22 22 23 23 24 24 24 24 24 24 24 24 24 24 23 23 23 22 22 23 23 23 23 23 23 23 23 23 23 24 25 26 27 27 27
18 18 18 19 20 20 20 21 22 22 23 23 23 23 24 24 24 24 23 23 23 23 22 23 22 22 22 22 22 22 22 22 23 23 23 22 22 22 23 24 25 25 25 26
18 18 19 19 20 20 20 21 21 22 22 22 22 23 23 23 23 23 23 23 23 23 22 22 22 22 22 21 21 22 22 22 21 22 22 21 21 21 21 22 23 24 26 27

GEFSNGP_500_meanwind_270.txt.gz
Wind_Speed
25 24 25 24 23 23 25 26 26 25 25 25 24 23 23 24 25 25 25 24 24 24 25 24 24 24 24 24 24 24 25 25 25 25 26 26 26 27 26 26 26 27 27 27
26 25 26 27 26 26 26 27 27 28 28 28 27 25 26 26 26 27 27 26 26 26 26 26 27 27 27 27 27 27 27 27 27 28 28 29 29 29 29 29 29 29 29 29
28 26 27 27 27 28 29 29 29 29 29 29 29 29 28 28 27 28 28 28 27 28 28 28 28 29 30 30 29 29 29 29 29 30 31 31 31 31 32 31 31 31 32 32
29 29 30 28 28 28 29 30 29 30 30 29 30 30 29 29 29 30 30 30 30 29 30 30 30 31 31 31 32 32 32 32 33 33 32 32 33 33 32 33 32 33 33 33
30 31 32 30 30 30 30 31 31 31 31 31 31 31 31 31 32 32 32 32 32 32 33 33 32 32 32 33 33 33 34 34 34 34 33 34 34 34 34 34 33 33 33 33
32 33 33 31 30 31 31 32 33 33 33 32 32 33 33 33 34 34 35 35 35 35 35 36 36 35 35 36 36 36 36 35 35 35 35 35 35 35 36 35 35 35 35 34
33 33 33 32 31 32 33 33 32 32 33 33 34 34 34 35 35 35 36 37 36 37 37 38 38 39 39 39 39 38 37 36 37 37 36 36 36 37 37 37 37 36 36 36
32 33 33 32 32 33 33 34 34 34 34 35 35 35 35 36 36 37 38 38 38 38 39 39 40 40 41 41 40 39 39 38 38 39 39 38 39 39 39 38 38 37 38 38
34 34 33 33 33 33 33 34 34 35 35 35 35 36 36 37 37 37 38 38 38 38 39 39 40 41 42 41 41 40 40 40 40 39 40 40 40 40 40 39 38 38 39 39
36 35 35 33 33 34 34 34 34 34 35 36 36 37 37 37 37 38 38 38 38 39 39 39 40 40 40 40 41 41 41 41 41 41 41 42 42 42 41 41 41 40 39 39
35 35 35 35 34 33 33 34 34 36 36 36 36 37 37 35 35 35 36 36 36 37 38 38 38 39 40 40 41 41 42 42 42 42 42 43 43 44 43 43 43 42 41 40
32 32 34 33 34 34 35 35 36 36 37 37 38 38 37 37 37 38 38 38 37 37 38 39 39 40 40 41 41 41 42 42 42 42 43 43 43 43 43 43 42 42 42 41
32 32 33 33 33 34 35 36 37 36 37 37 38 37 37 38 38 38 38 38 38 39 40 40 41 41 42 42 43 43 43 43 43 43 43 43 43 43 43 43 43 42 41 40
33 33 33 33 33 34 34 35 36 36 37 38 37 38 38 38 38 38 38 39 39 40 40 41 42 42 42 42 43 43 43 43 43 43 43 43 43 43 43 42 42 42 41 40
32 32 33 33 34 34 34 35 35 35 36 36 37 38 38 38 39 39 39 39 39 40 40 41 41 41 41 42 42 42 42 42 42 43 42 42 42 42 41 41 42 42 41 41
30 31 31 33 33 32 33 34 34 34 34 35 36 36 37 39 39 39 39 39 40 40 40 40 40 41 41 41 41 41 41 42 42 42 42 42 42 41 41 40 40 40 40 38
29 30 30 30 29 30 31 31 32 32 33 33 33 34 36 37 38 39 39 40 40 40 40 40 40 40 40 40 40 40 40 40 40 40 40 40 40 39 38 37 37 37 37 37
27 28 28 27 27 27 27 28 28 29 29 30 31 32 33 34 35 36 37 38 38 39 39 39 39 39 39 39 40 39 38 38 38 37 37 36 36 36 36 35 35 34 34 34
23 23 23 24 24 24 25 25 26 26 27 28 29 30 31 32 32 33 34 34 35 35 35 36 36 36 36 36 36 36 35 35 35 35 35 35 34 33 33 33 32 32 31 31
21 21 20 21 22 23 24 24 25 26 26 27 28 28 29 29 30 31 31 31 31 32 32 33 33 34 34 33 33 33 33 32 32 33 33 32 32 31 30 30 30 30 30 29
20 20 20 21 22 23 23 24 25 25 26 26 27 28 28 28 28 28 28 28 29 30 31 32 32 31 31 31 31 30 30 30 30 29 28 28 28 27 27 27 27 28 28 28
20 20 20 21 22 22 23 23 24 25 26 27 27 26 27 27 27 27 27 27 28 29 29 30 30 30 30 29 29 29 29 29 28 27 27 26 25 25 25 25 25 26 26 26
19 20 21 21 22 22 22 23 23 24 25 25 25 25 26 25 25 26 26 27 27 28 28 28 28 29 28 28 28 28 28 27 26 26 26 25 24 24 24 24 24 25 25 26
18 19 19 20 21 21 21 22 22 23 23 23 23 23 24 24 24 25 26 26 27 27 27 27 27 27 27 27 27 27 26 26 25 25 25 25 24 24 24 24 24 24 25 25
17 18 18 19 20 20 21 20 21 21 22 22 22 22 22 23 23 23 24 24 25 25 26 26 26 25 25 25 25 25 25 25 25 25 24 24 24 23 23 23 23 24 25 25
17 17 18 18 19 19 19 19 19 20 20 20 21 21 21 21 22 22 22 23 23 24 24 24 24 23 23 24 23 23 24 24 24 24 23 23 23 23 23 23 24 24 24 24
16 16 17 17 17 18 18 18 19 18 18 19 20 21 21 21 21 21 21 22 22 22 23 23 23 22 22 22 22 22 23 23 23 22 22 22 22 22 22 22 22 22 22 23

GEFSNGP_500_meanwind_276.txt.gz
Wind_Speed
29 29 29 29 29 28 27 27 27 27 26 25 25 25 24 24 24 23 23 23 23 22 22 21 21 22 23 23 23 22 23 23 23 24 24 25 26 27 28 28 29 30 30 31
30 29 30 29 29 29 27 27 27 27 27 26 27 26 26 25 25 25 25 25 25 25 24 24 24 25 25 26 26 25 26 27 26 26 26 27 28 29 30 31 31 32 31 32
31 30 31 31 29 29 28 28 27 28 28 28 28 28 27 26 26 26 26 26 27 27 27 27 26 26 27 28 29 29 29 30 30 30 30 30 30 31 32 32 33 33 33 33
31 31 33 30 30 30 29 28 29 29 28 28 29 29 28 28 28 28 27 27 27 28 29 29 29 29 30 31 32 32 32 32 33 32 33 33 34 34 35 34 34 34 34 35
32 32 33 31 31 30 30 30 29 29 29 29 29 29 29 28 28 29 30 30 30 30 30 31 31 32 32 33 33 35 35 35 35 35 35 35 36 36 36 36 36 35 36 36
33 33 33 31 30 29 30 30 29 30 30 30 30 30 29 29 30 31 32 32 32 32 33 33 34 35 35 35 35 35 36 36 36 37 38 38 38 38 37 37 36 36 36 37
34 33 33 32 31 30 31 30 30 31 31 31 31 31 31 31 31 32 33 33 33 33 34 34 35 35 35 36 36 36 37 37 38 39 40 40 40 40 38 38 38 38 37 37
33 33 33 32 32 32 31 31 31 32 32 32 32 32 32 32 32 32 32 33 33 34 35 36 36 37 37 36 37 37 38 39 39 40 41 40 40 39 39 39 39 39 38 38
34 33 33 32 32 32 32 32 32 32 32 33 33 33 33 33 33 34 34 34 35 35 36 36 37 37 37 37 38 38 38 38 38 39 39 39 40 40 39 39 39 39 40 40
34 33 32 31 31 32 32 33 32 32 32 32 32 33 33 33 33 34 34 35 35 35 36 36 37 37 38 38 38 39 39 39 39 39 39 39 39 39 39 39 39 40 40 41
35 34 33 33 33 33 33 32 32 32 32 32 32 32 32 33 34 34 35 36 37 37 37 37 37 38 38 38 38 39 39 39 40 39 39 40 40 40 40 40 40 40 40 40
35 34 34 33 33 33 33 33 33 33 32 32 32 33 33 34 34 35 36 36 36 36 36 37 37 37 37 38 39 40 40 40 40 40 40 40 40 40 40 40 41 41 41 40
34 34 33 34 34 33 33 33 32 32 33 33 34 34 34 35 36 36 36 36 37 37 37 37 37 37 38 39 40 40 40 40 40 39 39 39 39 39 39 40 40 41 41 41
33 32 32 32 32 33 33 33 33 33 34 34 34 35 35 35 36 37 36 36 36 37 37 37 37 38 39 40 40 40 40 40 40 40 40 40 39 39 39 39 39 40 41 41
33 32 32 32 32 32 32 33 33 34 34 34 34 35 34 35 35 36 36 36 36 36 37 38 38 38 39 41 41 41 41 41 41 41 41 40 40 40 39 39 40 40 40 40
30 31 31 32 32 32 33 33 32 32 33 33 33 33 33 34 34 35 35 36 37 37 38 38 38 39 40 40 40 40 40 41 41 41 41 40 39 39 39 39 38 38 38 37
27 28 29 30 31 31 30 31 31 31 31 31 32 32 32 33 33 34 35 36 37 37 37 38 38 39 40 41 40 40 40 40 40 40 40 39 38 37 37 37 36 36 35 34
25 25 26 27 28 28 28 29 29 29 30 30 31 31 31 32 33 34 34 35 35 36 37 38 38 39 40 40 40 40 39 38 38 38 38 38 37 36 36 36 36 34 33 32
23 24 25 25 26 27 27 28 28 28 29 29 29 30 30 31 32 32 33 34 35 36 37 38 38 39 39 39 39 39 38 37 36 36 36 36 35 35 35 35 34 32 31 31
22 23 24 24 25 26 26 26 26 27 27 28 28 27 28 29 30 30 32 33 34 35 35 35 36 36 36 36 36 36 35 35 34 34 35 35 35 34 34 33 32 31 31 31
22 22 23 23 24 24 25 25 25 25 26 26 26 27 27 28 28 29 30 31 32 32 32 32 33 33 33 33 33 32 32 33 33 32 33 32 32 32 32 31 30 30 31 31
21 21 22 23 23 24 24 24 24 24 24 25 26 26 26 27 28 29 30 31 30 30 30 30 30 30 30 31 31 31 31 31 31 31 31 30 30 30 29 29 29 29 30 30
20 21 21 22 22 23 23 23 23 23 23 24 25 26 26 27 28 29 29 29 29 29 28 29 29 29 29 29 29 29 29 29 29 29 29 29 28 28 28 28 28 29 28 28
19 19 20 20 21 22 22 22 22 23 24 25 25 25 26 27 27 27 27 27 27 27 27 27 27 27 27 27 28 28 28 28 28 28 27 27 27 26 27 27 27 28 28 27
18 18 19 19 20 20 20 20 21 22 23 23 24 24 25 26 26 26 26 26 25 26 26 26 26 26 27 27 27 27 27 27 26 25 25 25 25 26 26 27 27 27 27 27
17 18 18 19 19 19 20 20 21 21 22 22 22 23 23 24 24 24 24 24 24 25 25 26 26 26 26 26 26 26 26 26 25 25 25 25 25 25 25 25 25 26 26 26
17 17 18 18 18 18 19 20 20 20 20 20 20 21 22 23 23 23 23 24 24 25 25 25 25 25 25 25 25 25 25 25 25 25 25 25 26 26 25 25 25 25 25 25

GEFSNGP_500_meanwind_282.txt.gz
Wind_Speed
25 25 25 25 25 26 25 24 24 23 24 23 24 23 22 22 21 21 20 20 20 21 21 22 22 23 23 24 24 24 25 25 25 25 26 26 26 27 27 28 28 29 29 30
27 26 26 26 26 26 26 26 26 26 26 25 26 25 25 24 24 23 23 22 22 22 23 24 24 24 25 25 25 26 26 27 28 28 28 29 29 29 30 31 31 32 32 32
27 26 27 27 26 26 27 27 27 28 28 27 26 26 25 25 25 25 25 24 24 24 25 25 26 26 27 27 27 28 28 29 30 30 31 31 32 32 32 33 34 35 35 35
27 27 28 28 26 26 27 27 27 27 28 28 27 27 27 27 26 26 27 27 27 27 28 28 28 28 29 29 29 30 31 32 32 33 33 34 34 34 35 35 36 36 37 37
29 28 29 29 28 27 27 27 26 27 28 28 28 27 28 28 28 29 29 29 29 30 30 30 30 30 31 31 31 32 33 34 34 35 35 35 35 36 36 36 37 37 37 37
30 29 29 29 28 28 28 28 26 26 26 27 28 28 28 28 29 30 30 30 31 32 32 32 32 33 33 33 33 34 34 35 36 36 36 35 36 37 37 37 37 38 38 38
31 30 30 30 29 28 29 29 28 28 28 28 29 29 29 29 29 30 31 32 32 33 33 34 34 34 34 34 34 35 36 37 37 36 36 36 37 37 37 37 37 37 38 38
31 31 31 31 30 30 30 30 30 29 29 29 30 30 30 30 30 31 31 32 33 33 33 34 34 35 35 35 36 36 37 37 37 37 37 38 37 38 38 39 39 38 38 38
31 32 32 32 32 31 31 31 31 30 30 31 31 31 31 31 31 31 32 32 33 34 34 34 35 36 36 36 36 36 37 37 37 37 38 39 39 38 39 40 39 39 39 39
32 32 32 31 31 31 30 30 30 31 31 31 32 31 31 31 32 32 32 33 34 35 35 35 35 36 36 36 36 37 37 37 38 39 39 39 39 39 39 39 39 39 39 38
32 32 31 31 31 31 31 31 31 31 31 31 32 32 32 32 32 32 33 33 34 34 35 35 35 36 36 37 37 38 38 38 38 38 37 38 38 38 39 39 39 39 39 39
32 31 31 31 32 32 32 32 32 32 32 32 32 32 32 32 32 33 33 34 36 37 37 37 37 37 37 37 38 39 39 39 38 38 39 39 39 38 39 39 39 39 39 39
32 32 32 32 32 32 32 33 33 32 32 33 33 33 33 33 34 35 35 36 37 37 37 37 37 37 37 37 38 39 38 38 38 38 39 39 39 39 39 39 39 39 38 38
32 32 32 32 31 31 31 31 32 32 32 32 33 33 33 34 34 35 35 35 36 36 36 36 36 37 37 37 37 37 38 38 38 38 38 39 39 39 39 40 39 39 38 38
30 30 30 30 29 29 29 30 30 30 31 31 31 32 33 34 34 35 35 36 36 36 36 36 36 35 35 36 36 37 37 37 37 38 39 39 39 40 40 39 39 38 38 37
29 29 28 28 28 28 28 29 29 30 30 30 31 32 32 33 35 35 35 35 35 35 35 35 35 35 35 35 35 35 36 36 37 38 39 39 39 39 38 37 37 37 37 36
28 27 28 28 28 28 29 29 29 29 30 31 32 32 32 33 32 32 32 33 33 33 34 34 35 34 35 35 35 35 35 36 37 37 37 37 37 37 36 35 35 34 34 34
27 26 26 27 27 28 28 28 29 29 30 30 31 31 32 31 31 31 31 32 32 33 34 34 34 34 34 34 35 35 35 36 36 36 36 36 36 35 35 35 34 34 33 33
25 25 25 25 26 26 26 27 27 28 28 28 28 29 29 29 30 30 30 31 32 33 33 33 33 34 34 34 34 34 35 35 35 35 35 35 35 35 34 34 33 32 32 31
23 24 24 24 24 25 25 25 26 26 26 26 26 27 27 28 28 28 29 30 30 31 32 33 33 33 33 33 33 34 34 34 34 34 34 34 34 33 33 32 32 31 31 31
21 22 22 22 22 23 23 24 25 25 24 25 25 25 25 25 26 27 27 28 28 29 30 30 30 31 31 31 32 32 32 32 32 32 32 32 32 32 32 31 30 30 30 30
21 21 21 21 21 22 22 23 23 23 23 23 23 23 24 24 24 25 25 26 26 27 28 28 29 29 30 30 31 31 31 31 31 31 30 30 30 30 30 30 29 29 28 29
19 20 20 20 21 21 21 22 22 22 22 21 22 23 23 24 24 24 25 25 26 26 27 28 28 29 29 29 30 30 30 29 29 29 29 29 29 29 29 28 28 28 28 28
19 20 20 20 19 20 20 21 21 21 21 21 21 22 23 23 24 25 25 25 26 26 27 27 27 28 29 29 29 28 28 27 26 27 27 27 27 27 27 27 27 27 27 27
18 18 19 19 19 19 20 20 20 21 21 22 22 23 23 24 25 25 25 26 26 26 26 26 26 27 28 28 28 27 26 26 26 27 27 27 27 27 27 27 27 27 27 27
17 17 18 18 19 19 18 19 19 19 20 21 22 22 23 23 23 24 25 25 25 25 26 26 27 27 28 28 27 27 27 27 27 28 27 27 27 27 28 28 28 27 27 26
16 16 17 17 17 17 18 18 19 20 20 21 21 21 22 22 23 23 24 24 25 25 25 26 26 27 27 27 27 27 27 27 28 27 27 27 27 27 27 27 27 26 26 26

GEFSNGP_500_meanwind_288.txt.gz
Wind_Speed
26 23 22 21 21 22 23 23 22 23 24 25 27 26 26 26 26 26 26 25 26 26 25 25 25 25 25 25 24 25 25 25 24 24 24 25 25 26 26 27 28 29 29 30
28 26 25 25 24 24 24 24 24 24 25 26 28 27 28 29 29 29 28 27 27 27 26 26 26 26 26 26 27 27 27 27 27 27 27 27 28 28 28 29 30 31 31 30
28 26 26 26 25 25 25 26 25 25 26 28 29 30 30 30 30 30 29 28 28 28 27 27 27 27 27 28 28 29 30 29 29 29 29 30 31 31 32 32 32 33 32 31
28 27 27 26 25 26 26 26 26 27 28 29 30 32 32 31 30 30 30 29 28 28 28 28 29 29 29 30 30 31 32 33 32 32 32 33 33 34 34 34 35 35 34 34
28 28 28 26 27 27 27 28 28 29 29 30 30 31 32 32 31 31 31 30 29 29 30 30 31 31 31 32 33 33 34 35 35 34 34 35 35 35 35 36 36 36 35 35
30 30 29 29 29 27 29 31 30 30 30 31 30 30 30 31 32 33 32 31 31 31 31 32 33 33 33 33 34 34 35 36 37 37 37 37 37 37 37 37 38 37 37 37
32 31 30 31 31 29 30 32 31 30 30 31 31 31 32 33 33 33 33 32 32 32 32 33 34 34 35 36 36 36 37 37 38 38 38 38 38 39 39 38 38 38 37 38
32 31 31 32 31 31 31 32 32 32 32 32 32 32 33 33 33 33 32 32 32 33 33 34 34 35 36 37 37 38 38 38 38 39 39 39 40 40 40 40 39 38 38 38
33 33 33 32 33 33 33 33 33 33 33 33 33 34 33 33 33 33 32 32 33 34 34 34 35 36 37 37 37 38 39 39 39 40 40 41 42 42 40 40 39 39 39 38
33 33 34 35 34 33 33 34 34 34 33 32 32 33 33 34 34 34 34 35 35 35 35 35 36 37 37 38 38 39 39 40 40 41 41 41 41 41 41 41 41 41 39 39
35 34 34 34 34 33 34 34 34 34 34 33 33 33 33 33 34 35 35 35 35 35 36 36 37 37 38 39 39 40 40 40 40 41 41 40 41 41 41 42 42 40 39 39
34 35 34 33 33 33 34 35 35 34 34 34 34 34 35 35 36 36 36 36 36 36 36 37 37 38 39 39 40 40 40 40 41 41 41 40 40 40 40 40 40 39 39 39
33 33 34 35 35 34 33 33 34 35 35 35 35 35 35 35 36 36 36 36 36 36 37 37 37 38 38 39 39 40 40 40 40 40 39 38 39 40 40 39 38 38 39 39
35 35 35 36 36 35 34 33 34 34 34 34 35 35 35 36 36 35 36 36 36 37 37 37 37 37 38 38 38 38 38 38 39 38 38 38 38 38 38 38 38 38 38 39
36 36 36 36 36 35 34 34 34 34 35 34 34 34 34 35 35 35 36 36 37 37 37 37 37 37 37 37 37 37 37 37 37 38 38 38 37 37 38 38 38 38 38 38
35 35 36 35 35 34 34 34 34 34 34 34 34 33 34 34 35 35 36 36 36 36 36 36 37 37 37 37 36 37 37 37 37 37 37 36 36 37 37 37 37 37 37 37
34 35 35 34 34 34 33 33 33 33 33 33 33 33 33 34 34 35 35 35 36 36 36 36 36 36 37 36 36 36 37 36 36 35 35 35 35 36 36 36 36 37 36 36
32 33 33 33 34 33 33 32 32 32 32 32 32 32 32 31 31 32 32 33 34 34 34 35 35 36 37 36 36 36 36 36 35 34 34 35 35 35 35 36 36 36 36 35
30 31 31 31 31 31 31 31 31 31 30 30 30 30 29 29 30 30 31 31 32 32 32 33 34 35 35 35 35 35 35 35 34 34 34 34 34 35 35 35 35 35 35 34
28 28 28 28 29 29 29 29 29 29 29 29 28 28 28 28 28 29 29 29 30 31 31 32 32 31 31 32 32 32 33 33 33 33 34 34 34 34 34 34 34 34 34 33
25 25 25 25 25 26 26 26 27 27 27 27 27 27 28 28 28 28 28 29 29 30 30 29 29 30 30 30 31 31 31 31 31 32 32 32 33 33 33 33 33 32 32 32
23 23 23 24 25 25 25 25 26 26 26 26 27 27 28 28 28 28 29 29 29 29 29 29 30 29 30 30 31 31 31 30 31 31 32 32 33 33 33 33 32 31 32 32
22 22 22 22 22 23 23 24 24 25 25 26 27 27 27 27 27 28 28 29 28 29 29 29 30 30 30 31 31 31 31 30 31 31 32 32 32 32 31 31 31 32 32 31
21 21 21 20 21 21 22 23 23 23 24 25 26 26 27 27 27 28 28 28 28 29 29 30 29 29 30 30 31 31 30 31 31 31 31 31 31 31 30 30 30 31 32 32
18 18 19 19 19 20 20 21 22 23 24 24 25 25 25 26 27 27 27 27 28 28 29 29 29 30 30 30 30 30 30 30 30 30 31 31 31 30 30 30 31 32 32 31
17 17 17 18 18 18 19 20 21 22 22 23 24 24 25 25 26 27 27 27 28 28 29 29 29 29 29 29 29 29 29 29 29 30 31 31 30 30 31 31 32 32 32 31
16 16 17 17 17 18 19 20 21 22 22 23 23 24 24 25 25 26 26 27 28 29 29 29 29 29 29 29 29 29 29 29 29 30 30 31 31 31 31 32 31 31 31 30

GEFSNGP_500_meanwind_294.txt.gz
Wind_Speed
27 26 26 28 28 26 26 27 27 25 24 24 24 23 22 22 23 23 22 23 23 22 21 21 21 21 21 20 21 21 22 22 23 23 24 24 24 24 24 25 25 25 26 26
29 29 29 30 30 29 29 28 29 28 27 25 25 24 24 25 26 26 26 26 26 24 23 24 24 24 23 23 23 23 23 24 24 25 25 25 26 26 27 27 27 28 28 28
31 31 30 31 31 31 30 30 31 30 29 28 27 27 27 27 27 28 28 27 27 26 25 25 26 26 26 25 24 24 24 25 26 26 27 28 28 28 28 29 30 30 30 31
33 33 34 31 30 31 31 31 30 31 30 30 29 29 28 27 28 29 28 28 28 27 27 27 27 27 27 27 26 25 25 26 26 27 28 29 29 29 30 31 30 31 32 33
34 34 34 32 31 31 31 32 30 30 29 29 29 30 29 29 30 30 30 29 29 30 29 29 28 27 28 28 28 27 27 28 28 29 29 30 31 31 32 32 32 33 34 35
34 35 35 32 31 30 31 32 31 31 31 31 31 31 30 30 31 30 30 30 30 30 30 30 29 29 29 29 30 30 30 30 30 30 31 31 32 32 33 34 34 34 34 35
35 35 34 32 31 30 31 30 30 31 33 32 31 31 31 31 31 31 31 31 30 30 31 30 30 30 30 31 31 32 32 32 32 33 33 33 33 34 34 35 35 35 35 36
36 35 35 33 32 32 31 30 30 30 32 32 32 31 31 31 31 31 32 32 31 31 31 31 31 31 31 32 33 33 34 34 34 35 35 35 36 36 36 36 37 37 37 36
36 36 34 34 33 33 32 31 30 31 32 32 32 31 31 30 31 32 32 32 32 32 32 31 32 32 32 33 34 35 35 35 36 36 36 36 37 37 37 38 38 37 37 37
37 37 35 34 34 34 33 32 32 32 33 33 33 31 31 32 31 31 32 33 34 33 32 32 31 32 32 33 34 35 35 35 35 36 36 36 36 37 37 37 37 37 37 37
38 37 36 35 35 35 35 33 32 32 33 32 32 32 31 32 32 32 34 33 33 33 32 32 33 34 34 34 35 35 35 35 35 36 35 35 35 36 36 37 37 37 37 37
38 37 37 36 35 35 35 35 33 33 33 33 33 33 31 31 32 32 32 33 34 35 35 35 34 34 34 34 35 35 35 35 35 36 36 36 35 35 35 35 36 36 36 36
37 38 38 36 36 35 35 35 34 33 33 34 34 33 32 32 32 33 34 34 34 35 35 34 33 33 34 35 35 36 36 36 35 36 36 36 36 35 35 35 35 35 35 36
36 36 37 36 36 36 35 34 34 33 32 31 32 32 33 33 34 35 35 35 35 35 34 33 34 35 35 34 35 36 36 36 35 35 35 35 35 35 35 34 35 35 35 35
35 35 34 34 35 35 34 34 34 33 32 32 32 33 33 34 34 34 34 34 34 34 34 34 35 35 35 34 34 34 35 35 35 34 34 34 34 34 34 34 34 34 34 35
33 33 34 34 33 34 35 34 34 33 33 33 34 34 33 33 34 34 34 33 34 34 34 34 34 34 34 35 34 34 34 35 35 35 35 35 35 34 34 34 34 34 34 34
33 32 32 33 33 32 33 33 33 34 33 33 32 32 32 33 33 33 33 33 33 32 32 33 33 33 34 34 34 34 34 33 33 33 33 33 33 33 33 34 34 33 33 33
31 31 31 31 32 33 33 33 32 32 32 32 32 32 32 32 33 33 32 31 31 31 31 31 32 32 33 33 33 33 32 32 32 32 32 32 32 32 32 31 31 32 32 32
27 29 29 29 29 30 30 31 32 31 31 32 31 31 31 31 31 31 31 31 30 30 30 31 32 32 32 32 32 31 32 32 31 31 32 32 32 32 31 31 31 31 31 32
26 27 26 26 27 28 28 28 28 28 29 29 30 29 29 29 29 30 30 29 29 29 30 30 30 31 30 31 31 30 31 31 31 31 32 32 31 30 30 30 31 31 32 32
24 24 24 24 25 26 26 27 26 26 27 27 28 27 28 28 29 29 28 28 28 29 29 29 29 30 30 30 30 30 30 30 31 31 32 32 31 31 31 31 31 31 31 32
21 21 22 23 23 24 24 24 25 25 25 25 26 26 27 27 27 27 27 27 28 28 28 28 29 29 29 30 29 30 30 30 31 32 32 31 31 31 31 30 30 31 31 31
20 20 21 23 23 23 23 24 24 24 24 24 24 25 25 25 25 26 26 27 27 27 27 27 28 28 28 29 30 30 30 30 31 31 31 31 31 31 31 31 31 31 31 31
19 19 19 21 22 22 23 23 22 22 23 23 23 23 23 24 24 25 25 25 26 26 26 26 27 28 29 30 31 30 29 30 30 30 31 31 31 31 31 31 32 32 32 32
19 18 18 19 20 20 21 21 21 22 22 22 23 23 24 24 24 24 24 25 26 26 27 27 28 29 30 30 30 30 30 30 30 31 31 31 31 31 32 32 32 32 32 31
18 18 19 20 20 20 20 20 21 21 22 22 22 22 23 23 24 24 25 25 26 26 27 28 29 30 30 30 30 30 31 30 30 30 30 30 30 30 31 31 31 31 31 30
17 17 18 18 19 19 20 20 20 20 20 21 22 22 22 23 23 24 24 25 26 27 27 28 28 28 29 29 30 29 29 29 29 29 29 29 29 29 29 30 30 30 29 28